Cagliari, Italy

3:58 AM CEST on March 30, 2017 (GMT +0200)
Elmas Mil

Weather History for LIEE - December, 2012

Change the Weather History Date:

Saturday, December 1, 2012

  Actual Average Record
Temperature  
Mean Temperature 50 °F -  
Max Temperature 59 °F 59 °F 68 °F (2004)
Min Temperature 40 °F 44 °F 33 °F (2016)
Degree Days  
Heating Degree Days 16    
Moisture  
Dew Point 44 °F    
Average Humidity 81    
Maximum Humidity 100    
Minimum Humidity 49    
Precipitation  
Precipitation 0.00 in 0.07 in - ()
Sea Level Pressure  
Sea Level Pressure 29.73 in    
Wind  
Wind Speed 4 mph ()    
Max Wind Speed 7 mph    
Max Gust Speed -    
Visibility 6.3 miles    
Events      
Averages and records for this station are not official NWS values.
T = Trace of Precipitation, MM = Missing Value Source: Averaged Metar Reports

Daily Weather History Graph

Daily Weather History Graph

Search for Another Location

Airport or City:

Trip Planner

Search our weather history database for the weather conditions in past years. The results will help you decide how hot, cold, wet, or windy it might be!

Date:

Astronomy

Dec. 01, 2012 Rise Set
Actual Time 7:24 AM CET 5:01 PM CET
Civil Twilight 6:54 AM CET 5:30 PM CET
Nautical Twilight 6:21 AM CET 6:04 PM CET
Astronomical Twilight 5:49 AM CET 6:36 PM CET
Moon 7:35 PM CET (12/1) 9:26 AM CET (12/1)
Length of Visible Light 10h 35m
Length of Day
9h 36m
Waning Gibbous, 93% of the Moon is Illuminated
Dec 1
Waning Gibbous
Dec 6
Last Quarter
Dec 13
New
Dec 20
First Quarter
Dec 28
Full

Hourly Weather History & Observations

Time (CET) Temp. Windchill Dew Point Humidity Pressure Visibility Wind Dir Wind Speed Gust Speed Precip Events Conditions
12:15 AM 46.4 °F 43.5 °F 44.6 °F 93% 29.68 in 6.2 mi NW 5.8 mph - N/A   Scattered Clouds
12:45 AM 48.2 °F - 44.6 °F 87% 29.68 in 6.2 mi NNW 3.5 mph - N/A   Mostly Cloudy
12:55 AM 48.2 °F - 44.6 °F 87% 29.68 in 6.2 mi NNW 3.5 mph - N/A   Mostly Cloudy
1:00 AM 47 °F - 45 °F 92% 29.69 in 6 mi NNW 3.5 mph - -   Mostly Cloudy
1:45 AM 46.4 °F 44.3 °F 44.6 °F 93% 29.68 in 6.2 mi NW 4.6 mph - N/A   Scattered Clouds
1:55 AM 46.4 °F 44.3 °F 44.6 °F 93% 29.68 in 6.2 mi NW 4.6 mph - N/A   Scattered Clouds
2:15 AM 46.4 °F 44.3 °F 42.8 °F 87% 29.68 in 6.2 mi WNW 4.6 mph - N/A   Scattered Clouds
2:45 AM 46.4 °F 44.3 °F 42.8 °F 87% 29.68 in 6.2 mi WNW 4.6 mph - N/A   Scattered Clouds
2:55 AM 46.4 °F 44.3 °F 42.8 °F 87% 29.68 in 6.2 mi WNW 4.6 mph - N/A   Scattered Clouds
3:15 AM 44.6 °F 41.4 °F 42.8 °F 93% 29.68 in 6.2 mi NW 5.8 mph - N/A   Scattered Clouds
3:45 AM 44.6 °F 41.4 °F 42.8 °F 93% 29.68 in 6.2 mi NW 5.8 mph - N/A   Scattered Clouds
3:55 AM 44.6 °F 41.4 °F 42.8 °F 93% 29.68 in 6.2 mi NW 5.8 mph - N/A   Scattered Clouds
4:00 AM 45 °F - 43 °F 89% 29.70 in 6 mi NW 5.8 mph - -   Partly Cloudy
4:15 AM 42.8 °F 40.1 °F 41.0 °F 93% 29.68 in 6.2 mi NW 4.6 mph - N/A   Scattered Clouds
4:45 AM 42.8 °F 40.1 °F 41.0 °F 93% 29.68 in 6.2 mi NW 4.6 mph - N/A   Scattered Clouds
4:55 AM 42.8 °F 40.1 °F 41.0 °F 93% 29.68 in 6.2 mi NW 4.6 mph - N/A   Scattered Clouds
5:15 AM 42.8 °F 40.1 °F 41.0 °F 93% 29.68 in 6.2 mi NW 4.6 mph - N/A   Scattered Clouds
5:45 AM 42.8 °F 40.1 °F 42.8 °F 100% 29.68 in 6.2 mi NW 4.6 mph - N/A   Mostly Cloudy
5:55 AM 42.8 °F 40.1 °F 42.8 °F 100% 29.68 in 6.2 mi NW 4.6 mph - N/A   Mostly Cloudy
6:15 AM 42.8 °F 39.3 °F 42.8 °F 100% 29.68 in 6.2 mi NW 5.8 mph - N/A   Mostly Cloudy
6:45 AM 41.0 °F 36.4 °F 39.2 °F 93% 29.71 in 6.2 mi NW 6.9 mph - N/A   Scattered Clouds
6:55 AM 41.0 °F 36.4 °F 39.2 °F 93% 29.71 in 6.2 mi NW 6.9 mph - N/A   Scattered Clouds
7:00 AM 40 °F - 39 °F 94% 29.72 in 6 mi NW 6.9 mph - -   Partly Cloudy
7:15 AM 41.0 °F - 39.2 °F 93% 29.71 in 6.2 mi WNW 2.3 mph - N/A   Scattered Clouds
7:45 AM - - - N/A% 29.71 in 6.2 mi NNW 4.6 mph - N/A   Scattered Clouds
7:55 AM 42.8 °F 40.1 °F 41.0 °F 93% 29.71 in 6.2 mi NNW 4.6 mph - N/A   Scattered Clouds
8:15 AM 42.8 °F 39.3 °F 42.8 °F 100% 29.74 in 6.2 mi NNW 5.8 mph - N/A   Scattered Clouds
8:45 AM 44.6 °F - 44.6 °F 100% 29.74 in 6.2 mi NNW 2.3 mph - N/A   Scattered Clouds
8:55 AM 44.6 °F - 44.6 °F 100% 29.74 in 6.2 mi NNW 2.3 mph - N/A   Scattered Clouds
9:15 AM 48.2 °F - 42.8 °F 82% 29.74 in 6.2 mi NNW 4.6 mph - N/A   Scattered Clouds
9:45 AM 50.0 °F - 44.6 °F 82% 29.74 in 6.2 mi WNW 4.6 mph - N/A   Scattered Clouds
9:55 AM 50.0 °F - 44.6 °F 82% 29.74 in 6.2 mi WNW 4.6 mph - N/A   Scattered Clouds
10:00 AM 50 °F - 44 °F 72% 29.76 in 9 mi WNW 4.6 mph - -   Scattered Clouds
10:15 AM 51.8 °F - 44.6 °F 76% 29.74 in 6.2 mi NW 4.6 mph - N/A   Scattered Clouds
10:45 AM 53.6 °F - 46.4 °F 77% 29.74 in 6.2 mi NNW 2.3 mph - N/A   Scattered Clouds
10:55 AM 53.6 °F - 46.4 °F 77% 29.74 in 6.2 mi NNW 2.3 mph - N/A   Scattered Clouds
11:15 AM 55.4 °F - 46.4 °F 72% 29.74 in 6.2 mi WNW 2.3 mph - N/A   Scattered Clouds
11:45 AM 57.2 °F - 46.4 °F 67% 29.74 in 6.2 mi WNW 3.5 mph - N/A   Scattered Clouds
11:55 AM 57.2 °F - 46.4 °F 67% 29.74 in 6.2 mi WNW 3.5 mph - N/A   Scattered Clouds
12:15 PM 57.2 °F - 48.2 °F 72% 29.74 in 6.2 mi West 4.6 mph - N/A   Scattered Clouds
12:45 PM 59.0 °F - 44.6 °F 59% 29.74 in 6.2 mi WSW 4.6 mph - N/A   Scattered Clouds
12:55 PM 59.0 °F - 44.6 °F 59% 29.74 in 6.2 mi WSW 4.6 mph - N/A   Scattered Clouds
1:15 PM 59.0 °F - 44.6 °F 59% 29.74 in 6.2 mi SSW 3.5 mph - N/A   Scattered Clouds
1:45 PM 59.0 °F - 44.6 °F 59% 29.74 in 6.2 mi SW 4.6 mph - N/A   Scattered Clouds
1:55 PM 59.0 °F - 44.6 °F 59% 29.74 in 6.2 mi SW 4.6 mph - N/A   Scattered Clouds
2:15 PM 59.0 °F - 44.6 °F 59% 29.74 in 6.2 mi SW 3.5 mph - N/A   Scattered Clouds
2:45 PM 59.0 °F - 44.6 °F 59% 29.74 in 6.2 mi SSW 5.8 mph - N/A   Mostly Cloudy
2:55 PM 59.0 °F - 44.6 °F 59% 29.74 in 6.2 mi SSW 5.8 mph - N/A   Scattered Clouds
3:15 PM 59.0 °F - 44.6 °F 59% 29.74 in 6.2 mi South 4.6 mph - N/A   Scattered Clouds
3:45 PM 59.0 °F - 44.6 °F 59% 29.74 in 6.2 mi South 3.5 mph - N/A   Partly Cloudy
3:55 PM 59.0 °F - 44.6 °F 59% 29.74 in 6.2 mi South 3.5 mph - N/A   Partly Cloudy
4:00 PM 59 °F - 45 °F 49% 29.75 in 9 mi South 3.5 mph - -   Scattered Clouds
4:15 PM 57.2 °F - 46.4 °F 67% 29.74 in 6.2 mi South 2.3 mph - N/A   Partly Cloudy
4:45 PM 55.4 °F - 46.4 °F 72% 29.74 in 6.2 mi Calm Calm - N/A   Scattered Clouds
4:55 PM 55.4 °F - 46.4 °F 72% 29.74 in 6.2 mi Calm Calm - N/A   Scattered Clouds
5:15 PM 55.4 °F - 44.6 °F 67% 29.74 in 6.2 mi Calm Calm - N/A   Scattered Clouds
5:45 PM 53.6 °F - 44.6 °F 72% 29.74 in 6.2 mi Calm Calm - N/A   Scattered Clouds
5:55 PM 53.6 °F - 44.6 °F 72% 29.74 in 6.2 mi Calm Calm - N/A   Scattered Clouds
6:15 PM 51.8 °F - 44.6 °F 76% 29.77 in 6.2 mi Calm Calm - N/A   Scattered Clouds
6:45 PM 51.8 °F - 46.4 °F 82% 29.77 in 6.2 mi North 3.5 mph - N/A   Scattered Clouds
6:55 PM 51.8 °F - 46.4 °F 82% 29.77 in 6.2 mi North 3.5 mph - N/A   Scattered Clouds
7:00 PM 51 °F - 47 °F 80% 29.78 in 9 mi North 3.5 mph - -   Mostly Cloudy
7:15 PM 51.8 °F - 46.4 °F 82% 29.77 in 6.2 mi NNE 2.3 mph - N/A   Scattered Clouds
7:45 PM 50.0 °F - 46.4 °F 87% 29.77 in 6.2 mi NW 4.6 mph - N/A   Scattered Clouds
7:55 PM 50.0 °F - 46.4 °F 87% 29.77 in 6.2 mi NW 4.6 mph - N/A   Scattered Clouds
8:15 PM 50.0 °F - 46.4 °F 87% 29.77 in 6.2 mi NW 2.3 mph - N/A   Scattered Clouds
8:45 PM 50.0 °F - 46.4 °F 87% 29.77 in 6.2 mi NW 3.5 mph - N/A   Scattered Clouds
8:55 PM 50.0 °F - 46.4 °F 87% 29.77 in 6.2 mi NW 3.5 mph - N/A   Scattered Clouds
9:15 PM 50.0 °F - 44.6 °F 82% 29.77 in 6.2 mi NW 2.3 mph - N/A   Mostly Cloudy
9:45 PM 50.0 °F - 44.6 °F 82% 29.77 in 6.2 mi NW 2.3 mph - N/A   Mostly Cloudy
9:55 PM 50.0 °F - 44.6 °F 82% 29.77 in 6.2 mi NW 2.3 mph - N/A   Mostly Cloudy
10:00 PM 49 °F - 45 °F 83% 29.79 in 6 mi NW 2.3 mph - -   Scattered Clouds
10:15 PM 48.2 °F - 44.6 °F 87% 29.77 in 6.2 mi WNW 5.8 mph - N/A   Mostly Cloudy
10:45 PM 48.2 °F - 44.6 °F 87% 29.77 in 6.2 mi WNW 5.8 mph - N/A   Mostly Cloudy
10:55 PM 48.2 °F - 44.6 °F 87% 29.77 in 6.2 mi WNW 5.8 mph - N/A   Mostly Cloudy
11:15 PM 50.0 °F - 46.4 °F 87% 29.77 in 6.2 mi NW 5.8 mph - N/A   Mostly Cloudy
11:45 PM 48.2 °F - 44.6 °F 87% 29.77 in 6.2 mi NW 4.6 mph - N/A   Scattered Clouds
11:55 PM 48.2 °F - 44.6 °F 87% 29.77 in 6.2 mi NW 4.6 mph - N/A   Mostly Cloudy